Flag for Canada Weather past 2 weeks in Hopedale, Newfoundland and Labrador, Canada

Now
1 °F

Frigid.


Feels Like: -20 °F
Forecast: -13 / 4 °F
Wind: 18 mph from Northwest

Location: Hopedale

Current Time: Mar 3, 2015 at 9:26:35 AM

Latest Report: Mar 3, 2015 at 8:00 AM


Visibility: N/A

Pressure: 29.56 "Hg

Humidity: 72%

Dew point: -6 °F

Location of HopedaleLocation

Historic Weather in Hopedale — Graph

°F

Hopedale temperature yesterday

Maximum temperature yesterday: 16 °F (at 3:00 PM)
Minimum temperature yesterday: 3 °F (at 1:00 AM)
Average temperature yesterday: 8 °F

Past Weeks' High & Low Weather Summary

 TemperatureHumidityPressure
High27 °F (Feb 20, 7:00 PM)100% (Feb 21, 3:00 AM)30.16 "Hg (Feb 21, 3:00 AM)
Low-18 °F (Feb 28, 7:00 AM)47% (Feb 27, 2:00 PM)28.79 "Hg (Feb 21, 2:00 AM)
Average0 °F69%29.78 "Hg
* Reported Feb 16 8:00 AM — Mar 3 8:00 AM, Hopedale, Weather by CustomWeather, © 2015

Note: Actual official high and low records may vary slightly from our data, if they occured in-between our weather recording intervals... More about our weather records

Advertising

Hopedale weather history for previous 24 hours

 ConditionsComfort  
Time TempWeatherWind HumidityBarometerVisibility
8:00 AM
Tue, Mar 3
1 °FFrigid.18 mph72%29.56 "HgN/A
7:00 AM4 °FFrigid.23 mph69%29.55 "HgN/A
6:00 AM4 °FFrigid.22 mph86%29.54 "HgN/A
5:00 AM7 °FFrigid.18 mph82%29.54 "HgN/A
4:00 AM5 °FFrigid.10 mph85%29.54 "HgN/A
3:00 AM8 °FFrigid.13 mph76%29.53 "HgN/A
2:00 AM8 °FFrigid.15 mph79%29.53 "HgN/A
1:00 AM1 °FFrigid.12 mph87%29.54 "HgN/A
12:00 AM1 °FFrigid.1 mph85%29.55 "HgN/A
11:00 PM
Mon, Mar 2
4 °FFrigid.No wind84%29.57 "HgN/A
10:00 PM8 °FFrigid.No wind81%29.59 "HgN/A
9:00 PM9 °FFrigid.6 mph81%29.61 "HgN/A
8:00 PM11 °FCold.No wind76%29.62 "HgN/A
7:00 PM11 °FCold.2 mph77%29.62 "HgN/A
6:00 PM11 °FCold.1 mph78%29.62 "HgN/A
5:00 PM9 °FFrigid.6 mph75%29.62 "HgN/A
4:00 PM15 °FCold.2 mph66%29.62 "HgN/A
3:00 PM16 °FCold.1 mph60%29.65 "HgN/A
2:00 PM15 °FCold.2 mph58%29.66 "HgN/A
1:00 PM13 °FCold.6 mph67%29.67 "HgN/A
12:00 PM12 °FCold.8 mph67%29.69 "HgN/A
11:00 AM8 °FFrigid.7 mph68%29.72 "HgN/A
10:00 AM8 °FFrigid.10 mph67%29.74 "HgN/A
9:00 AM5 °FFrigid.3 mph66%29.75 "HgN/A
Weather by CustomWeather, © 2015

See weather overviewHow to use our weather pages